This demonstration page uses our WeatherBlox Daily Observations layout. Learn more.

Left ArrowRight Arrow

Hourly Observations for March 25, 2021

Temp ( °F °C ) Dew Point ( °F °C ) Humidity (%) Winds ( mph kmh ) Pressure ( in mb ) Visibility ( mi km ) Precip ( " mm )
12:54 am 00:54 Cloudy 42 5.6 34 1.1 73 73 N N/A 29.89 1012 10 16 N/A
1:54 am 01:54 Cloudy 42 5.6 35 1.7 76 76 NNW 5 7 29.87 1012 10 16 N/A
2:54 am 02:54 Cloudy 41 5 35 1.7 79 79 N N/A 29.88 1012 10 16 N/A
3:54 am 03:54 Cloudy 40 4.4 36 2.2 86 86 N N/A 29.89 1012 10 16 0.00 0.00
4:54 am 04:54 Cloudy 41 5 36 2.2 82 82 SSE 3 6 29.91 1013 10 16 N/A
5:54 am 05:54 Cloudy 41 5 37 2.8 86 86 N N/A 29.90 1013 10 16 N/A
6:46 am 06:46 Cloudy 41 5 37 2.8 86 86 N N/A 29.92 1013 10 16 N/A
6:54 am 06:54 Cloudy 41 5 37 2.8 86 86 N N/A 29.89 1012 10 16 N/A
7:19 am 07:19 Cloudy 41 5 37 2.8 86 86 NNE 3 6 29.89 1012 10 16 N/A
7:54 am 07:54 Cloudy 42 5.6 37 2.8 82 82 ESE 8 13 29.89 1012 10 16 N/A
8:54 am 08:54 Cloudy 43 6.1 36 2.2 76 76 ESE 7 11 29.89 1012 10 16 N/A
9:54 am 09:54 Cloudy 43 6.1 36 2.2 76 76 N N/A 29.89 1012 10 16 N/A
10:54 am 10:54 Cloudy 47 8.3 36 2.2 66 66 VRB 5 7 29.88 1012 10 16 N/A
11:23 am 11:23 Mostly Cloudy 47 8.3 36 2.2 66 66 ENE 8 13 29.89 1012 10 16 N/A
11:54 am 11:54 Cloudy 47 8.3 36 2.2 66 66 E 7 11 29.87 1012 10 16 N/A
12:54 pm 12:54 Cloudy 47 8.3 35 1.7 63 63 NE 7 11 29.85 1011 10 16 N/A
1:01 pm 13:01 Cloudy 47 8.3 35 1.7 63 63 VRB 3 6 29.86 1011 10 16 N/A
1:54 pm 13:54 Cloudy 50 10 36 2.2 59 59 N 9 15 29.83 1010 10 16 N/A
2:54 pm 14:54 Cloudy 50 10 35 1.7 57 57 NNE 10 17 29.81 1010 10 16 N/A
3:54 pm 15:54 Cloudy 48 8.9 35 1.7 61 61 NE 8 13 29.82 1010 10 16 N/A
4:54 pm 16:54 Cloudy 48 8.9 35 1.7 61 61 E 10 17 29.80 1009 10 16 N/A
5:54 pm 17:54 Cloudy 47 8.3 35 1.7 63 63 ENE 7 11 29.81 1010 10 16 N/A
6:54 pm 18:54 Cloudy 47 8.3 35 1.7 63 63 E 8 13 29.82 1010 10 16 N/A
7:54 pm 19:54 Cloudy 46 7.8 35 1.7 66 66 E 7 11 29.84 1011 10 16 N/A
8:54 pm 20:54 Cloudy 44 6.7 35 1.7 71 71 ESE 5 7 29.86 1011 10 16 N/A
9:54 pm 21:54 Clear 44 6.7 34 1.1 68 68 N N/A 29.88 1012 10 16 N/A
10:54 pm 22:54 Clear 38 3.3 33 0.6 83 83 N N/A 29.89 1012 10 16 N/A
11:54 pm 23:54 Clear 37 2.8 33 0.6 86 86 N N/A 29.89 1012 10 16 N/A

Powered by AerisWeather